Flag for U.S.A. Weather past 2 weeks in Wichita Falls, Texas, U.S.A.

Now
79 °F

Clear.


Feels Like: 82 °F
Forecast: 76 / 96 °F
Wind: 13 mph from South

Location: Wichita Falls - Sheppard Air Force Base

Current Time: Aug 21, 2014 at 8:18:42 AM

Latest Report: Aug 21, 2014 at 7:52 AM


Visibility: 10 mi

Pressure: 29.92 "Hg

Humidity: 72%

Dew point: 69 °F

Location of Wichita FallsLocation

Historic Weather in Wichita Falls — Graph

°F

Wichita Falls temperature yesterday

Maximum temperature yesterday: 101 °F (at 3:52 PM)
Minimum temperature yesterday: 77 °F (at 5:52 AM)
Average temperature yesterday: 88 °F

Past Weeks' High & Low Weather Summary

 TemperatureHumidityPressure
High102 °F (Aug 7, 3:52 PM)90% (Aug 11, 6:52 AM)30.11 "Hg (Aug 11, 6:52 AM)
Low66 °F (Aug 13, 6:52 AM)21% (Aug 20, 4:52 PM)29.72 "Hg (Aug 7, 6:52 PM)
Average84 °F55%29.90 "Hg
* Reported Aug 6 6:52 AM — Aug 21 6:52 AM, Wichita Falls, Weather by CustomWeather, © 2014

Note: Actual official high and low records may vary slightly from our data, if they occured in-between our weather recording intervals... More about our weather records

Advertising

Wichita Falls weather history for previous 24 hours

 ConditionsComfort  
Time TempWeatherWind HumidityBarometerVisibility
6:52 AM
Aug 21
78 °FClear.14 mph71%29.90 "Hg10 mi
5:52 AM78 °FClear.12 mph69%29.88 "Hg10 mi
4:52 AM81 °FClear.13 mph62%29.87 "Hg10 mi
3:52 AM81 °FClear.14 mph62%29.85 "Hg10 mi
2:52 AM82 °FClear.16 mph60%29.85 "Hg10 mi
1:52 AM83 °FClear.14 mph57%29.85 "Hg10 mi
12:52 AM84 °FClear.16 mph51%29.84 "Hg10 mi
11:52 PM
Aug 20
86 °FClear.15 mph46%29.85 "Hg10 mi
10:52 PM87 °FClear.13 mph43%29.85 "Hg10 mi
9:52 PM87 °FClear.12 mph39%29.83 "Hg10 mi
8:52 PM91 °FSunny.14 mph33%29.80 "Hg10 mi
7:52 PM94 °FSunny.17 mph31%29.78 "Hg10 mi
6:52 PM98 °FSunny.20 mph24%29.76 "Hg10 mi
5:52 PM100 °FPassing clouds.15 mph23%29.77 "Hg10 mi
4:52 PM101 °FPassing clouds.24 mph21%29.77 "Hg10 mi
3:52 PM101 °FPassing clouds.20 mph22%29.79 "Hg10 mi
2:52 PM99 °FPassing clouds.18 mph25%29.81 "Hg10 mi
1:52 PM96 °FSunny.22 mph28%29.84 "Hg10 mi
12:52 PM94 °FPassing clouds.18 mph35%29.85 "Hg10 mi
11:52 AM93 °FSunny.18 mph34%29.87 "Hg10 mi
10:52 AM90 °FPassing clouds.21 mph37%29.88 "Hg10 mi
9:52 AM85 °FScattered clouds.22 mph45%29.87 "Hg10 mi
8:52 AM82 °FScattered clouds.17 mph56%29.86 "Hg10 mi
Weather by CustomWeather, © 2014

See weather overviewHow to use our weather pages